THORAD AGENA D DEB, 42526

Orbit data source: Space-Track

THORAD AGENA D DEB, 42526 is space debris in SSO originally from a launch on Wed, 08 Apr 1970 UTC launched from the Air Force Western Test Range (AFWTR). Debris objects in space refer to the collection of defunct objects orbiting the Earth. Examples of debris include non-operational satellites, rocket bodies, and fragments generated from explosions, collisions, or faulty payload assembly.

Loading next visibility...
Identifier
42526, 1970-025SG
Orbit
SSO
Country
Flag of USUS
Related business
Manufacturer
Unknown
Mission
Spacecraft
Bus & Motor
Unknown
Mass
Unknown
Launch date (UTC)
1970-04-08 (56 years ago)
Launch vehicle
Unknown
Launch site
Air Force Western Test Range (AFWTR)
Object type
Payload
Rocket body
Debris
Shape & HBR
Unknown shape, 0.1 m
Radar Cross Section
Small (<0.1 m²)

Expand to show TLE details & history
Last TLE update: 2 days ago

TLE from 2 days ago
0 THORAD AGENA D DEB
1 42526U 70025SG  25285.56969656  .00001025  00000-0  80669-3 0  9997
2 42526  99.7879 210.2622 0090045  63.9441 115.8150 13.92487167603110
Epoch: 2025-10-12T13:40Z
TLE epoch observation values (Epoch: 2025-10-12T13:40:21.782Z)
Latitude
-0.79196°
Longitude
163.65058°
Altitude
951.974 km
Speed
7.361 km/s
True Right ascension
02h 00m 30s
True Declination
0° 47' 14"
Sunlit
Object was in full shadow at epoch
Visualization orbit readout
Latitude
Unknown
Longitude
Unknown
Altitude
Unknown
Speed
Unknown
Apparent Right ascension
Unknown
Apparent Declination
Unknown
Sunlit
N/A
Visualization observer readout
Local Sidereal Time
09:03:54
Azimuth
Unknown
Elevation
Unknown
Doppler factor
Unknown
Orbital elements
Apogee altitude
982.868 km
Perigee altitude
851.486 km
Semi-major axis
7,295.314 km
Eccentricity
0.009
Inclination
99.7879°
RAAN
210.2622°
Arg. of periapsis
63.9441°
True anomaly
116.7393°
Mean anomaly
115.815°
Eccentric anomaly
116.2776°
Mean motion
3.48319 °/min
Orbital period
103.35 mins
BSTAR
0.00080669
Loading maneuver chart data...
Computing Atmospheric mass density...

Documentation

Showing up to 5 results
|